Tracking 23752 objects as of 23-Oct-2021
HD Live streaming from Space Station
objects crossing your sky now

FREGAT DEB

Track FREGAT DEB now!
10-day predictions


NORAD ID: 46242
Int'l Code: 2011-037KC
Perigee: 935.2 km
Apogee: 3,153.2 km
Inclination: 51.4 °
Period: 128.0 minutes
Semi major axis: 8415 km
RCS: Unknown
Launch date: July 18, 2011
Source: Commonwealth of Independent States (former USSR) (CIS)
Launch site: TYURATAM MISSILE AND SPACE COMPLEX (TTMTR)

Note: This is SATELLITE DEBRIS
aabbcc
Your satellite tracking list
Your tracking list is empty




NASA's NSSDC Master Catalog

Two Line Element Set (TLE):
1 46242U 11037KC  21294.20359029 -.00032809  00000-0 -14195+0 0  9991
2 46242  51.4127 227.1544 1317850 245.5481 100.2442 11.24612436 48037
Source of the keplerian elements: AFSPC